Producer — WDH9695 — position and weather

sailwx.info

Track history (hours):
 
Tides and Currents Weather Stations Pressure Air Temp Water Temp Dewpoint Dewpoint Depression Visibility Wind Speed Wind Dir Waves Ship Positions

Producer

Owner: Pro Sportfishing, San Diego, CA, CA. More information available from US FCC via Universal Licensing System and Coast Guard Vessel Documentation Center.

Last reported at 2017-Oct-19 05:18 UTC. Time now 2017-Oct-19 05:46 UTC.
Position N 32°40' W 117°44'.

Type: Passenger vessel. MMSI: 367033990.

Date/timePositionNaut miles runAvg speedWind from/ knotsBaromVisibWave heightAir tempDewpointWater temp
2017-Oct-19 05:18N 32°40' W 117°44'3 9.0
2017-Oct-19 04:55N 32°40' W 117°48'8 9.2
2017-Oct-19 04:06N 32°40' W 117°57'19 9.1
2017-Oct-19 01:57N 32°40' W 118°20'8 3.2
2017-Oct-18 23:24N 32°48' W 118°24'1 2.1
2017-Oct-18 23:00N 32°49' W 118°24'2 0.5
2017-Oct-18 18:59N 32°49' W 118°22'0 0.0
2017-Oct-18 18:26N 32°49' W 118°22'0 0.0
2017-Oct-18 18:00N 32°49' W 118°22'1 0.2
2017-Oct-18 10:26N 32°49' W 118°23'0 0.0
2017-Oct-18 10:00N 32°49' W 118°23'0 0.0
2017-Oct-18 09:22N 32°49' W 118°23'0 0.1
2017-Oct-18 08:59N 32°49' W 118°23'0 0.1
2017-Oct-18 08:27N 32°49' W 118°23'5 1.1
2017-Oct-18 04:12N 32°45' W 118°26'2 9.1
2017-Oct-18 03:56N 32°43' W 118°28'2 4.6
2017-Oct-18 03:30N 32°42' W 118°30'0 0.2
2017-Oct-18 01:55N 32°42' W 118°30'4 1.8
2017-Oct-17 23:32N 32°41' W 118°35'1 9.7
2017-Oct-17 23:29N 32°41' W 118°36'7 9.2
2017-Oct-17 22:46N 32°41' W 118°44'2 9.3
2017-Oct-17 22:30N 32°41' W 118°46'5 9.4
2017-Oct-17 21:58N 32°41' W 118°52'4 9.5
2017-Oct-17 21:30N 32°41' W 118°58'5 9.9
2017-Oct-17 21:00N 32°41' W 119°04'4 6.9
2017-Oct-17 20:28N 32°42' W 119°08'0 0.0
2017-Oct-17 18:50N 32°42' W 119°08'0 0.0
2017-Oct-17 18:24N 32°42' W 119°08'0 0.0
2017-Oct-17 14:49N 32°42' W 119°08'5 5.4
2017-Oct-17 13:49N 32°42' W 119°02'3 8.9
2017-Oct-17 13:30N 32°41' W 118°58'21 9.3
2017-Oct-17 11:12N 32°41' W 118°33'4 6.6
2017-Oct-17 10:39N 32°40' W 118°29'20 9.4
2017-Oct-17 08:32N 32°40' W 118°05'1 9.6
2017-Oct-17 08:27N 32°40' W 118°04'5 9.4
2017-Oct-17 07:56N 32°39' W 117°58'4 8.4
2017-Oct-17 07:26N 32°38' W 117°53'4 9.5
2017-Oct-17 07:00N 32°38' W 117°48'8 9.4
2017-Oct-17 06:07N 32°38' W 117°39'3 8.9
2017-Oct-17 05:46N 32°38' W 117°35'3 9.5
2017-Oct-17 05:30N 32°38' W 117°32'15 0.5
2017-Oct-16 00:45N 32°33' W 117°16'34 4.0
2017-Oct-15 16:11N 31°58' W 117°13'0 2.2
2017-Oct-15 16:00N 31°59' W 117°12'0 0.6
2017-Oct-15 15:29N 31°59' W 117°13'3 7.2
2017-Oct-15 15:00N 32°02' W 117°13'5 5.2
2017-Oct-15 13:59N 32°07' W 117°15'3 7.0
2017-Oct-15 13:30N 32°10' W 117°17'1 2.7
2017-Oct-15 13:00N 32°09' W 117°17'1 2.9
2017-Oct-15 12:30N 32°10' W 117°17'1 0.3
2017-Oct-15 09:22N 32°11' W 117°17'3 7.4
2017-Oct-15 09:00N 32°14' W 117°17'5 7.5
2017-Oct-15 08:17N 32°19' W 117°18'2 7.6
2017-Oct-15 08:00N 32°21' W 117°18'4 7.6
2017-Oct-15 07:30N 32°25' W 117°17'4 7.9
2017-Oct-15 07:00N 32°29' W 117°16'4 8.1
2017-Oct-15 06:30N 32°33' W 117°15'4 8.4
2017-Oct-15 06:00N 32°37' W 117°14'4 8.4
2017-Oct-15 05:30N 32°41' W 117°14'0 1.0
2017-Oct-15 05:00N 32°42' W 117°14'2 3.5
2017-Oct-15 04:30N 32°43' W 117°14'0 0.0
2017-Oct-15 04:00N 32°43' W 117°14'0 0.0
2017-Oct-15 03:30N 32°43' W 117°14'0 0.0
2017-Oct-15 03:00N 32°43' W 117°14'0 0.0
2017-Oct-15 02:30N 32°43' W 117°14'1 1.3
2017-Oct-15 01:58N 32°43' W 117°13'0 0.2
2017-Oct-15 01:30N 32°43' W 117°13'0 0.2
2017-Oct-15 01:00N 32°43' W 117°13'4 7.8
2017-Oct-15 00:30N 32°39' W 117°14'4 8.0
2017-Oct-15 00:00N 32°35' W 117°14'4 8.7
2017-Oct-14 23:30N 32°31' W 117°16'4 8.8
2017-Oct-14 23:00N 32°27' W 117°16'4 9.0
2017-Oct-14 22:30N 32°22' W 117°17'12 1.3
2017-Oct-14 13:16N 32°11' W 117°19'1 3.8
2017-Oct-14 12:53N 32°12' W 117°21'2 4.6
2017-Oct-14 12:28N 32°12' W 117°23'2 3.8
2017-Oct-14 11:59N 32°11' W 117°25'9 3.2
2017-Oct-14 09:16N 32°20' W 117°24'3 7.1
2017-Oct-14 08:51N 32°23' W 117°24'3 7.2
2017-Oct-14 08:29N 32°26' W 117°23'14 7.7
2017-Oct-14 06:38N 32°38' W 117°14'1 8.9
2017-Oct-14 06:30N 32°39' W 117°14'3 5.9
2017-Oct-14 06:01N 32°42' W 117°14'0 0.0
2017-Oct-14 05:31N 32°42' W 117°14'2 3.4
2017-Oct-14 04:59N 32°43' W 117°14'0 0.1
2017-Oct-14 04:29N 32°43' W 117°14'0 0.0
2017-Oct-14 04:00N 32°43' W 117°14'0 0.6
2017-Oct-14 03:30N 32°43' W 117°13'4 7.3
2017-Oct-14 03:00N 32°40' W 117°14'4 8.8
2017-Oct-14 02:30N 32°36' W 117°16'5 9.3
2017-Oct-14 02:00N 32°32' W 117°19'5 9.7
2017-Oct-14 01:28N 32°28' W 117°23'6 9.8
2017-Oct-14 00:52N 32°23' W 117°27'4 9.9
2017-Oct-14 00:30N 32°20' W 117°30'5 9.7
2017-Oct-14 00:00N 32°16' W 117°33'22 1.3
2017-Oct-13 07:09N 32°32' W 117°14'1 7.1
2017-Oct-13 07:00N 32°33' W 117°14'4 7.1
2017-Oct-13 06:30N 32°36' W 117°13'4 7.3
2017-Oct-13 06:00N 32°40' W 117°14'2 3.6
2017-Oct-13 05:30N 32°42' W 117°14'2 3.6
2017-Oct-13 05:00N 32°43' W 117°13'1 1.2
2017-Oct-13 04:30N 32°43' W 117°14'0 0.0
2017-Oct-13 04:00N 32°43' W 117°14'0 0.0
2017-Oct-13 03:30N 32°43' W 117°14'0 0.0
2017-Oct-13 03:00N 32°43' W 117°14'0 0.0
2017-Oct-13 02:30N 32°43' W 117°14'0 0.1
2017-Oct-13 01:49N 32°43' W 117°14'0 0.3
2017-Oct-13 01:30N 32°43' W 117°14'0 0.0
2017-Oct-13 01:00N 32°43' W 117°14'0 0.0
2017-Oct-13 00:30N 32°43' W 117°14'0 0.0
2017-Oct-13 00:00N 32°43' W 117°14'0 0.0
2017-Oct-12 23:30N 32°43' W 117°14'0 0.0
2017-Oct-12 23:00N 32°43' W 117°14'0 0.0
2017-Oct-12 22:29N 32°43' W 117°14'0 0.0
2017-Oct-12 22:00N 32°43' W 117°14'0 0.0
2017-Oct-12 21:30N 32°43' W 117°14'0 0.0
2017-Oct-12 20:59N 32°43' W 117°14'0 0.0
2017-Oct-12 20:30N 32°43' W 117°14'0 0.0
2017-Oct-12 20:00N 32°43' W 117°14'0 0.0
2017-Oct-12 19:31N 32°43' W 117°14'0 0.0
2017-Oct-12 19:00N 32°43' W 117°14'0 0.0
2017-Oct-12 18:30N 32°43' W 117°14'0 0.0
2017-Oct-12 18:00N 32°43' W 117°14'0 0.0
2017-Oct-12 17:30N 32°43' W 117°14'0 0.0
2017-Oct-12 17:00N 32°43' W 117°14'0 0.0
2017-Oct-12 16:31N 32°43' W 117°14'0 0.0
2017-Oct-12 16:01N 32°43' W 117°14'0 0.0
2017-Oct-12 15:30N 32°43' W 117°14'0 0.0
2017-Oct-12 15:00N 32°43' W 117°14'0 0.0
2017-Oct-12 14:30N 32°43' W 117°14'0 0.0
2017-Oct-12 14:00N 32°43' W 117°14'0 0.0
2017-Oct-12 13:30N 32°43' W 117°14'0 0.0
2017-Oct-12 13:00N 32°43' W 117°14'0 0.0
2017-Oct-12 12:31N 32°43' W 117°14'0 0.0
2017-Oct-12 12:00N 32°43' W 117°14'0 0.0
2017-Oct-12 11:30N 32°43' W 117°14'0 0.0
2017-Oct-12 11:00N 32°43' W 117°14'0 0.0
2017-Oct-12 10:30N 32°43' W 117°14'0 0.0
2017-Oct-12 10:00N 32°43' W 117°14'0 0.0
2017-Oct-12 09:30N 32°43' W 117°14'0 0.0
2017-Oct-12 09:00N 32°43' W 117°14'0 0.0
2017-Oct-12 08:30N 32°43' W 117°14'0 0.0
2017-Oct-12 08:00N 32°43' W 117°14'0 0.0
2017-Oct-12 07:30N 32°43' W 117°14'0 0.0
2017-Oct-12 07:00N 32°43' W 117°14'0 0.0
2017-Oct-12 06:29N 32°43' W 117°14'0 0.0
2017-Oct-12 06:01N 32°43' W 117°14'0 0.0
2017-Oct-12 05:30N 32°43' W 117°14'0 0.0
2017-Oct-12 05:00N 32°43' W 117°14'0 0.0
2017-Oct-12 04:30N 32°43' W 117°14'0 0.0
2017-Oct-12 04:00N 32°43' W 117°14'0 0.0
2017-Oct-12 03:30N 32°43' W 117°14'0 0.0
2017-Oct-12 03:00N 32°43' W 117°14'0 0.0
2017-Oct-12 02:30N 32°43' W 117°14'0 0.0
2017-Oct-12 02:00N 32°43' W 117°14'0 0.0
2017-Oct-12 01:30N 32°43' W 117°14'0 0.0
2017-Oct-12 01:00N 32°43' W 117°14'0 0.0
2017-Oct-12 00:30N 32°43' W 117°14'0 0.0
2017-Oct-12 00:00N 32°43' W 117°14'0 0.0
2017-Oct-11 23:30N 32°43' W 117°14'0 0.0
2017-Oct-11 23:00N 32°43' W 117°14'0 0.0
2017-Oct-11 22:30N 32°43' W 117°14'0 0.0
2017-Oct-11 22:00N 32°43' W 117°14'0 0.0
2017-Oct-11 21:30N 32°43' W 117°14'0 0.0
2017-Oct-11 21:00N 32°43' W 117°14'0 0.0
2017-Oct-11 20:30N 32°43' W 117°14'0 0.0
2017-Oct-11 20:00N 32°43' W 117°14'0 0.0
2017-Oct-11 19:30N 32°43' W 117°14'0 0.0
2017-Oct-11 19:00N 32°43' W 117°14'0 0.0
2017-Oct-11 18:30N 32°43' W 117°14'0 0.0
2017-Oct-11 18:00N 32°43' W 117°14'0 0.0
2017-Oct-11 17:30N 32°43' W 117°14'0 0.0
2017-Oct-11 17:00N 32°43' W 117°14'63 2.2
2017-Oct-10 12:37N 31°41' W 117°02'41 8.6
2017-Oct-10 07:53N 32°20' W 117°15'4 9.3
2017-Oct-10 07:30N 32°23' W 117°16'5 9.4
2017-Oct-10 07:00N 32°28' W 117°16'5 9.3
2017-Oct-10 06:30N 32°33' W 117°15'5 9.1
2017-Oct-10 06:00N 32°37' W 117°14'4 8.8
2017-Oct-10 05:30N 32°42' W 117°14'2 2.6
2017-Oct-10 04:49N 32°43' W 117°13'1 1.8
2017-Oct-10 04:30N 32°43' W 117°14'0 0.0
2017-Oct-10 04:00N 32°43' W 117°14'0 0.0
2017-Oct-10 03:31N 32°43' W 117°14'0 0.0
2017-Oct-10 03:00N 32°43' W 117°14'0 0.0
2017-Oct-10 02:31N 32°43' W 117°14'0 0.0
2017-Oct-10 02:00N 32°43' W 117°14'0 0.0
2017-Oct-10 01:31N 32°43' W 117°14'0 0.0
2017-Oct-10 01:00N 32°43' W 117°14'0 0.0
2017-Oct-10 00:31N 32°43' W 117°14'0 0.0
2017-Oct-10 00:01N 32°43' W 117°14'0 0.0
2017-Oct-09 23:31N 32°43' W 117°14'0 0.0
2017-Oct-09 23:00N 32°43' W 117°14'0 0.0
2017-Oct-09 22:28N 32°43' W 117°14'0 0.0
2017-Oct-09 22:01N 32°43' W 117°14'0 0.0
2017-Oct-09 21:30N 32°43' W 117°14'0 0.0
2017-Oct-09 21:00N 32°43' W 117°14'0 0.0
2017-Oct-09 20:30N 32°43' W 117°14'0 0.0
2017-Oct-09 20:00N 32°43' W 117°14'0 0.0
2017-Oct-09 19:31N 32°43' W 117°14'0 0.0
2017-Oct-09 19:00N 32°43' W 117°14'0 0.0
2017-Oct-09 18:31N 32°43' W 117°14'0 0.0
2017-Oct-09 18:01N 32°43' W 117°14'0 0.0
2017-Oct-09 17:31N 32°43' W 117°14'0 0.0
2017-Oct-09 17:00N 32°43' W 117°14'0 0.0
2017-Oct-09 16:31N 32°43' W 117°14'0 0.0
2017-Oct-09 16:00N 32°43' W 117°14'0 0.0
2017-Oct-09 15:30N 32°43' W 117°14'0 0.0
2017-Oct-09 15:01N 32°43' W 117°14'0 0.0
2017-Oct-09 14:30N 32°43' W 117°14'0 0.0
2017-Oct-09 14:00N 32°43' W 117°14'0 0.0
2017-Oct-09 13:30N 32°43' W 117°14'0 0.0
2017-Oct-09 13:00N 32°43' W 117°14'0 0.0
2017-Oct-09 12:30N 32°43' W 117°14'0 0.0
2017-Oct-09 12:00N 32°43' W 117°14'0 0.0
2017-Oct-09 11:30N 32°43' W 117°14'0 0.0
2017-Oct-09 11:00N 32°43' W 117°14'0 0.0
2017-Oct-09 10:30N 32°43' W 117°14'0 0.0
2017-Oct-09 10:00N 32°43' W 117°14'0 0.0
2017-Oct-09 09:30N 32°43' W 117°14'0 0.0
2017-Oct-09 09:00N 32°43' W 117°14'0 0.0
2017-Oct-09 08:30N 32°43' W 117°14'0 0.0
2017-Oct-09 08:00N 32°43' W 117°14'0 0.0
2017-Oct-09 07:30N 32°43' W 117°14'0 0.0
2017-Oct-09 07:01N 32°43' W 117°14'0 0.0
2017-Oct-09 06:30N 32°43' W 117°14'0 0.0
2017-Oct-09 06:00N 32°43' W 117°14'0 0.0
2017-Oct-09 05:30N 32°43' W 117°14'  
Track history (hours):
 
Tides and Currents Weather Stations Pressure Air Temp Water Temp Dewpoint Dewpoint Depression Visibility Wind Speed Wind Dir Waves Ship Positions

Producer

Owner: Pro Sportfishing, San Diego, CA, CA. More information available from US FCC via Universal Licensing System and Coast Guard Vessel Documentation Center.

Last reported at 2017-Oct-19 05:18 UTC. Time now 2017-Oct-19 05:46 UTC.
Position N 32°40' W 117°44'.

Type: Passenger vessel. MMSI: 367033990.

Date/timePositionNaut miles runAvg speedWind from/ knotsBaromVisibWave heightAir tempDewpointWater temp
2017-Oct-19 05:18N 32°40' W 117°44'3 9.0
2017-Oct-19 04:55N 32°40' W 117°48'8 9.2
2017-Oct-19 04:06N 32°40' W 117°57'19 9.1
2017-Oct-19 01:57N 32°40' W 118°20'8 3.2
2017-Oct-18 23:24N 32°48' W 118°24'1 2.1
2017-Oct-18 23:00N 32°49' W 118°24'2 0.5
2017-Oct-18 18:59N 32°49' W 118°22'0 0.0
2017-Oct-18 18:26N 32°49' W 118°22'0 0.0
2017-Oct-18 18:00N 32°49' W 118°22'1 0.2
2017-Oct-18 10:26N 32°49' W 118°23'0 0.0
2017-Oct-18 10:00N 32°49' W 118°23'0 0.0
2017-Oct-18 09:22N 32°49' W 118°23'0 0.1
2017-Oct-18 08:59N 32°49' W 118°23'0 0.1
2017-Oct-18 08:27N 32°49' W 118°23'5 1.1
2017-Oct-18 04:12N 32°45' W 118°26'2 9.1
2017-Oct-18 03:56N 32°43' W 118°28'2 4.6
2017-Oct-18 03:30N 32°42' W 118°30'0 0.2
2017-Oct-18 01:55N 32°42' W 118°30'4 1.8
2017-Oct-17 23:32N 32°41' W 118°35'1 9.7
2017-Oct-17 23:29N 32°41' W 118°36'7 9.2
2017-Oct-17 22:46N 32°41' W 118°44'2 9.3
2017-Oct-17 22:30N 32°41' W 118°46'5 9.4
2017-Oct-17 21:58N 32°41' W 118°52'4 9.5
2017-Oct-17 21:30N 32°41' W 118°58'5 9.9
2017-Oct-17 21:00N 32°41' W 119°04'4 6.9
2017-Oct-17 20:28N 32°42' W 119°08'0 0.0
2017-Oct-17 18:50N 32°42' W 119°08'0 0.0
2017-Oct-17 18:24N 32°42' W 119°08'0 0.0
2017-Oct-17 14:49N 32°42' W 119°08'5 5.4
2017-Oct-17 13:49N 32°42' W 119°02'3 8.9
2017-Oct-17 13:30N 32°41' W 118°58'21 9.3
2017-Oct-17 11:12N 32°41' W 118°33'4 6.6
2017-Oct-17 10:39N 32°40' W 118°29'20 9.4
2017-Oct-17 08:32N 32°40' W 118°05'1 9.6
2017-Oct-17 08:27N 32°40' W 118°04'5 9.4
2017-Oct-17 07:56N 32°39' W 117°58'4 8.4
2017-Oct-17 07:26N 32°38' W 117°53'4 9.5
2017-Oct-17 07:00N 32°38' W 117°48'8 9.4
2017-Oct-17 06:07N 32°38' W 117°39'3 8.9
2017-Oct-17 05:46N 32°38' W 117°35'3 9.5
2017-Oct-17 05:30N 32°38' W 117°32'15 0.5
2017-Oct-16 00:45N 32°33' W 117°16'34 4.0
2017-Oct-15 16:11N 31°58' W 117°13'0 2.2
2017-Oct-15 16:00N 31°59' W 117°12'0 0.6
2017-Oct-15 15:29N 31°59' W 117°13'3 7.2
2017-Oct-15 15:00N 32°02' W 117°13'5 5.2
2017-Oct-15 13:59N 32°07' W 117°15'3 7.0
2017-Oct-15 13:30N 32°10' W 117°17'1 2.7
2017-Oct-15 13:00N 32°09' W 117°17'1 2.9
2017-Oct-15 12:30N 32°10' W 117°17'1 0.3
2017-Oct-15 09:22N 32°11' W 117°17'3 7.4
2017-Oct-15 09:00N 32°14' W 117°17'5 7.5
2017-Oct-15 08:17N 32°19' W 117°18'2 7.6
2017-Oct-15 08:00N 32°21' W 117°18'4 7.6
2017-Oct-15 07:30N 32°25' W 117°17'4 7.9
2017-Oct-15 07:00N 32°29' W 117°16'4 8.1
2017-Oct-15 06:30N 32°33' W 117°15'4 8.4
2017-Oct-15 06:00N 32°37' W 117°14'4 8.4
2017-Oct-15 05:30N 32°41' W 117°14'0 1.0
2017-Oct-15 05:00N 32°42' W 117°14'2 3.5
2017-Oct-15 04:30N 32°43' W 117°14'0 0.0
2017-Oct-15 04:00N 32°43' W 117°14'0 0.0
2017-Oct-15 03:30N 32°43' W 117°14'0 0.0
2017-Oct-15 03:00N 32°43' W 117°14'0 0.0
2017-Oct-15 02:30N 32°43' W 117°14'1 1.3
2017-Oct-15 01:58N 32°43' W 117°13'0 0.2
2017-Oct-15 01:30N 32°43' W 117°13'0 0.2
2017-Oct-15 01:00N 32°43' W 117°13'4 7.8
2017-Oct-15 00:30N 32°39' W 117°14'4 8.0
2017-Oct-15 00:00N 32°35' W 117°14'4 8.7
2017-Oct-14 23:30N 32°31' W 117°16'4 8.8
2017-Oct-14 23:00N 32°27' W 117°16'4 9.0
2017-Oct-14 22:30N 32°22' W 117°17'12 1.3
2017-Oct-14 13:16N 32°11' W 117°19'1 3.8
2017-Oct-14 12:53N 32°12' W 117°21'2 4.6
2017-Oct-14 12:28N 32°12' W 117°23'2 3.8
2017-Oct-14 11:59N 32°11' W 117°25'9 3.2
2017-Oct-14 09:16N 32°20' W 117°24'3 7.1
2017-Oct-14 08:51N 32°23' W 117°24'3 7.2
2017-Oct-14 08:29N 32°26' W 117°23'14 7.7
2017-Oct-14 06:38N 32°38' W 117°14'1 8.9
2017-Oct-14 06:30N 32°39' W 117°14'3 5.9
2017-Oct-14 06:01N 32°42' W 117°14'0 0.0
2017-Oct-14 05:31N 32°42' W 117°14'2 3.4
2017-Oct-14 04:59N 32°43' W 117°14'0 0.1
2017-Oct-14 04:29N 32°43' W 117°14'0 0.0
2017-Oct-14 04:00N 32°43' W 117°14'0 0.6
2017-Oct-14 03:30N 32°43' W 117°13'4 7.3
2017-Oct-14 03:00N 32°40' W 117°14'4 8.8
2017-Oct-14 02:30N 32°36' W 117°16'5 9.3
2017-Oct-14 02:00N 32°32' W 117°19'5 9.7
2017-Oct-14 01:28N 32°28' W 117°23'6 9.8
2017-Oct-14 00:52N 32°23' W 117°27'4 9.9
2017-Oct-14 00:30N 32°20' W 117°30'5 9.7
2017-Oct-14 00:00N 32°16' W 117°33'22 1.3
2017-Oct-13 07:09N 32°32' W 117°14'1 7.1
2017-Oct-13 07:00N 32°33' W 117°14'4 7.1
2017-Oct-13 06:30N 32°36' W 117°13'4 7.3
2017-Oct-13 06:00N 32°40' W 117°14'2 3.6
2017-Oct-13 05:30N 32°42' W 117°14'2 3.6
2017-Oct-13 05:00N 32°43' W 117°13'1 1.2
2017-Oct-13 04:30N 32°43' W 117°14'0 0.0
2017-Oct-13 04:00N 32°43' W 117°14'0 0.0
2017-Oct-13 03:30N 32°43' W 117°14'0 0.0
2017-Oct-13 03:00N 32°43' W 117°14'0 0.0
2017-Oct-13 02:30N 32°43' W 117°14'0 0.1
2017-Oct-13 01:49N 32°43' W 117°14'0 0.3
2017-Oct-13 01:30N 32°43' W 117°14'0 0.0
2017-Oct-13 01:00N 32°43' W 117°14'0 0.0
2017-Oct-13 00:30N 32°43' W 117°14'0 0.0
2017-Oct-13 00:00N 32°43' W 117°14'0 0.0
2017-Oct-12 23:30N 32°43' W 117°14'0 0.0
2017-Oct-12 23:00N 32°43' W 117°14'0 0.0
2017-Oct-12 22:29N 32°43' W 117°14'0 0.0
2017-Oct-12 22:00N 32°43' W 117°14'0 0.0
2017-Oct-12 21:30N 32°43' W 117°14'0 0.0
2017-Oct-12 20:59N 32°43' W 117°14'0 0.0
2017-Oct-12 20:30N 32°43' W 117°14'0 0.0
2017-Oct-12 20:00N 32°43' W 117°14'0 0.0
2017-Oct-12 19:31N 32°43' W 117°14'0 0.0
2017-Oct-12 19:00N 32°43' W 117°14'0 0.0
2017-Oct-12 18:30N 32°43' W 117°14'0 0.0
2017-Oct-12 18:00N 32°43' W 117°14'0 0.0
2017-Oct-12 17:30N 32°43' W 117°14'0 0.0
2017-Oct-12 17:00N 32°43' W 117°14'0 0.0
2017-Oct-12 16:31N 32°43' W 117°14'0 0.0
2017-Oct-12 16:01N 32°43' W 117°14'0 0.0
2017-Oct-12 15:30N 32°43' W 117°14'0 0.0
2017-Oct-12 15:00N 32°43' W 117°14'0 0.0
2017-Oct-12 14:30N 32°43' W 117°14'0 0.0
2017-Oct-12 14:00N 32°43' W 117°14'0 0.0
2017-Oct-12 13:30N 32°43' W 117°14'0 0.0
2017-Oct-12 13:00N 32°43' W 117°14'0 0.0
2017-Oct-12 12:31N 32°43' W 117°14'0 0.0
2017-Oct-12 12:00N 32°43' W 117°14'0 0.0
2017-Oct-12 11:30N 32°43' W 117°14'0 0.0
2017-Oct-12 11:00N 32°43' W 117°14'0 0.0
2017-Oct-12 10:30N 32°43' W 117°14'0 0.0
2017-Oct-12 10:00N 32°43' W 117°14'0 0.0
2017-Oct-12 09:30N 32°43' W 117°14'0 0.0
2017-Oct-12 09:00N 32°43' W 117°14'0 0.0
2017-Oct-12 08:30N 32°43' W 117°14'0 0.0
2017-Oct-12 08:00N 32°43' W 117°14'0 0.0
2017-Oct-12 07:30N 32°43' W 117°14'0 0.0
2017-Oct-12 07:00N 32°43' W 117°14'0 0.0
2017-Oct-12 06:29N 32°43' W 117°14'0 0.0
2017-Oct-12 06:01N 32°43' W 117°14'0 0.0
2017-Oct-12 05:30N 32°43' W 117°14'0 0.0
2017-Oct-12 05:00N 32°43' W 117°14'0 0.0
2017-Oct-12 04:30N 32°43' W 117°14'0 0.0
2017-Oct-12 04:00N 32°43' W 117°14'0 0.0
2017-Oct-12 03:30N 32°43' W 117°14'0 0.0
2017-Oct-12 03:00N 32°43' W 117°14'0 0.0
2017-Oct-12 02:30N 32°43' W 117°14'0 0.0
2017-Oct-12 02:00N 32°43' W 117°14'0 0.0
2017-Oct-12 01:30N 32°43' W 117°14'0 0.0
2017-Oct-12 01:00N 32°43' W 117°14'0 0.0
2017-Oct-12 00:30N 32°43' W 117°14'0 0.0
2017-Oct-12 00:00N 32°43' W 117°14'0 0.0
2017-Oct-11 23:30N 32°43' W 117°14'0 0.0
2017-Oct-11 23:00N 32°43' W 117°14'0 0.0
2017-Oct-11 22:30N 32°43' W 117°14'0 0.0
2017-Oct-11 22:00N 32°43' W 117°14'0 0.0
2017-Oct-11 21:30N 32°43' W 117°14'0 0.0
2017-Oct-11 21:00N 32°43' W 117°14'0 0.0
2017-Oct-11 20:30N 32°43' W 117°14'0 0.0
2017-Oct-11 20:00N 32°43' W 117°14'0 0.0
2017-Oct-11 19:30N 32°43' W 117°14'0 0.0
2017-Oct-11 19:00N 32°43' W 117°14'0 0.0
2017-Oct-11 18:30N 32°43' W 117°14'0 0.0
2017-Oct-11 18:00N 32°43' W 117°14'0 0.0
2017-Oct-11 17:30N 32°43' W 117°14'0 0.0
2017-Oct-11 17:00N 32°43' W 117°14'63 2.2
2017-Oct-10 12:37N 31°41' W 117°02'41 8.6
2017-Oct-10 07:53N 32°20' W 117°15'4 9.3
2017-Oct-10 07:30N 32°23' W 117°16'5 9.4
2017-Oct-10 07:00N 32°28' W 117°16'5 9.3
2017-Oct-10 06:30N 32°33' W 117°15'5 9.1
2017-Oct-10 06:00N 32°37' W 117°14'4 8.8
2017-Oct-10 05:30N 32°42' W 117°14'2 2.6
2017-Oct-10 04:49N 32°43' W 117°13'1 1.8
2017-Oct-10 04:30N 32°43' W 117°14'0 0.0
2017-Oct-10 04:00N 32°43' W 117°14'0 0.0
2017-Oct-10 03:31N 32°43' W 117°14'0 0.0
2017-Oct-10 03:00N 32°43' W 117°14'0 0.0
2017-Oct-10 02:31N 32°43' W 117°14'0 0.0
2017-Oct-10 02:00N 32°43' W 117°14'0 0.0
2017-Oct-10 01:31N 32°43' W 117°14'0 0.0
2017-Oct-10 01:00N 32°43' W 117°14'0 0.0
2017-Oct-10 00:31N 32°43' W 117°14'0 0.0
2017-Oct-10 00:01N 32°43' W 117°14'0 0.0
2017-Oct-09 23:31N 32°43' W 117°14'0 0.0
2017-Oct-09 23:00N 32°43' W 117°14'0 0.0
2017-Oct-09 22:28N 32°43' W 117°14'0 0.0
2017-Oct-09 22:01N 32°43' W 117°14'0 0.0
2017-Oct-09 21:30N 32°43' W 117°14'0 0.0
2017-Oct-09 21:00N 32°43' W 117°14'0 0.0
2017-Oct-09 20:30N 32°43' W 117°14'0 0.0
2017-Oct-09 20:00N 32°43' W 117°14'0 0.0
2017-Oct-09 19:31N 32°43' W 117°14'0 0.0
2017-Oct-09 19:00N 32°43' W 117°14'0 0.0
2017-Oct-09 18:31N 32°43' W 117°14'0 0.0
2017-Oct-09 18:01N 32°43' W 117°14'0 0.0
2017-Oct-09 17:31N 32°43' W 117°14'0 0.0
2017-Oct-09 17:00N 32°43' W 117°14'0 0.0
2017-Oct-09 16:31N 32°43' W 117°14'0 0.0
2017-Oct-09 16:00N 32°43' W 117°14'0 0.0
2017-Oct-09 15:30N 32°43' W 117°14'0 0.0
2017-Oct-09 15:01N 32°43' W 117°14'0 0.0
2017-Oct-09 14:30N 32°43' W 117°14'0 0.0
2017-Oct-09 14:00N 32°43' W 117°14'0 0.0
2017-Oct-09 13:30N 32°43' W 117°14'0 0.0
2017-Oct-09 13:00N 32°43' W 117°14'0 0.0
2017-Oct-09 12:30N 32°43' W 117°14'0 0.0
2017-Oct-09 12:00N 32°43' W 117°14'0 0.0
2017-Oct-09 11:30N 32°43' W 117°14'0 0.0
2017-Oct-09 11:00N 32°43' W 117°14'0 0.0
2017-Oct-09 10:30N 32°43' W 117°14'0 0.0
2017-Oct-09 10:00N 32°43' W 117°14'0 0.0
2017-Oct-09 09:30N 32°43' W 117°14'0 0.0
2017-Oct-09 09:00N 32°43' W 117°14'0 0.0
2017-Oct-09 08:30N 32°43' W 117°14'0 0.0
2017-Oct-09 08:00N 32°43' W 117°14'0 0.0
2017-Oct-09 07:30N 32°43' W 117°14'0 0.0
2017-Oct-09 07:01N 32°43' W 117°14'0 0.0
2017-Oct-09 06:30N 32°43' W 117°14'0 0.0
2017-Oct-09 06:00N 32°43' W 117°14'0 0.0
2017-Oct-09 05:30N 32°43' W 117°14'  

Dump ship's entire track history